Simultaneous Nadir Overpasses (SNOs) Predictions

Prediction of SNOs between GOES-14 and NOAA-20 Satellite Orbit:

Table of predicted SNOs for the next 14.0 days since TLE Epoch: 1/21/2023
Index Date Time (GOES-14) GOES-14 Lat,Lon NOAA-20 Lat,Lon Distance(km) Time Diff (sec)
1 01/21/2023 08:05:08 -0.05,-104.65 -0.98,-100.52 470.81 80
2 01/22/2023 20:29:43 0.04,-104.28 -0.28,-105.80 173.12 80
3 01/23/2023 20:08:19 0.04,-104.29 0.74,-101.27 344.39 80
4 01/25/2023 08:30:07 -0.04,-104.68 0.39,-106.55 212.82 80
5 01/26/2023 08:14:03 -0.04,-104.70 -0.64,-102.02 305.25 80
6 01/27/2023 20:35:58 0.04,-104.34 -0.61,-107.31 337.38 80
7 01/28/2023 20:14:34 0.04,-104.36 0.42,-102.78 180.37 80
8 01/30/2023 08:36:22 -0.03,-104.75 0.70,-108.06 377.13 80
9 01/31/2023 08:20:16 -0.03,-104.76 -0.28,-103.52 141.22 80
10 02/02/2023 20:20:46 0.01,-104.42 0.03,-104.27 17.55 80
